Showing default

LEMUR-2-LUCILLE-ROSE, 65403

Orbit data source: Space-Track

LEMUR-2-LUCILLE-ROSE, 65403 is an American payload satellite in SSO that was launched on Mon, 23 Jun 2025 UTC via an FALCON 9 launch vehicle from the Air Force Western Test Range (AFWTR). Payload-class satellites include a variety of spacecraft equipped with specific instruments for various scientific and technological missions. These include communications satellites like Starlink; space stations such as the ISS; scientific satellites like the Hubble; Earth observation satellites from companies like Planet Labs, Umbra, and HawkEye 360; GPS; miniature CubeSats for education and research; and military/defense satellites.

Loading next visibility...
Identifier
65403, 2025-135BV
Orbit
SSO
Country
Flag of USUS
Related business
Manufacturer
Spire/Glasgow
Mission
Operational Commercial Com/MetRO
Bus & Motor
CUBESAT 4U, Unknown motor
Mass
5 kg wet, 5 kg dry
Launch date (UTC)
2025-06-23 (1 year ago)
Launch vehicle
FALCON 9
Launch site
Air Force Western Test Range (AFWTR)
Object type
Payload
Rocket body
Debris
Shape & HBR
Box, 14.5 m
Radar Cross Section
0.045 m², Medium (>0.1 m² and < 1m²)

Expand to show TLE details & history
Last TLE update: 15 hours ago

TLE from 15 hours ago
0 LEMUR-2-LUCILLE-ROSE
1 65403U 25135BV  26171.22681999  .00005244  00000-0  42394-3 0  9997
2 65403  97.7764 287.4529 0011474 271.3735  88.6173 15.00184115 49093
Epoch: 2026-06-20T05:26Z
TLE epoch observation values (Epoch: 2026-06-20T05:26:37.247Z)
Latitude
-0.00009°
Longitude
-62.64676°
Altitude
569.198 km
Speed
7.577 km/s
True Right ascension
19h 09m 48s
True Declination
0° 00' 00"
Sunlit
Object was in full shadow at epoch
Visualization orbit readout
Latitude
Unknown
Longitude
Unknown
Altitude
Unknown
Speed
Unknown
Apparent Right ascension
Unknown
Apparent Declination
Unknown
Sunlit
N/A
Visualization observer readout
Local Sidereal Time
07:18:49
Azimuth
Unknown
Elevation
Unknown
Doppler factor
Unknown
Orbital elements
Apogee altitude
571.301 km
Perigee altitude
555.372 km
Semi-major axis
6,941.474 km
Eccentricity
0.00115
Inclination
97.7764°
RAAN
287.4529°
Arg. of periapsis
271.3735°
True anomaly
88.74875°
Mean anomaly
88.6173°
Eccentric anomaly
88.68302°
Mean motion
3.75289 °/min
Orbital period
95.93 mins
BSTAR
0.00042394
Loading maneuver chart data...
Computing Atmospheric mass density...
Loading historical data...
Loading historical data...
Loading historical data...
Loading historical data...
Loading historical data...
Loading historical data...
Loading historical data...

Documentation

Showing up to 5 results
|